Wind_Speed
21 20 18 18 18 18 19 20 20 19 18 15 11 7 5 4 4 5 7 8 8 8 9 9 9 8 7 6 6 7 8 8 4 4 6 8 9 8 7 8 7 5 2
13 15 17 16 17 18 18 18 18 18 18 17 15 12 8 6 6 4 6 7 9 10 9 9 10 8 8 7 7 6 6 7 6 6 8 10 9 9 7 8 8 7 5
11 12 13 16 16 17 18 18 18 17 17 17 18 16 13 11 8 6 6 7 6 8 10 10 10 9 10 9 8 7 6 6 7 6 7 10 7 12 10 9 10 7 5
11 11 11 13 14 14 13 16 16 15 16 17 17 16 14 11 9 8 7 7 8 7 8 9 10 11 11 11 10 9 7 7 7 7 8 8 9 9 12 11 11 10 5
15 17 18 17 14 13 12 11 13 13 14 14 15 15 14 13 12 12 10 9 9 8 7 8 10 11 11 10 10 10 8 8 9 8 6 5 6 7 14 12 13 9 9
14 15 16 18 18 16 13 13 12 12 13 13 13 14 15 14 12 12 11 10 9 8 9 8 8 10 11 11 10 10 9 8 8 9 10 7 11 13 13 15 12 9 3
16 17 18 19 20 20 19 16 14 13 12 12 11 11 13 13 13 12 12 9 9 9 9 9 8 7 9 10 11 10 8 8 8 8 12 14 12 11 13 15 16 12 4
18 21 21 23 22 22 21 19 17 15 14 13 12 11 11 11 12 11 10 11 9 8 8 7 8 8 7 9 10 10 9 8 8 8 9 10 11 8 11 13 16 13 9
22 25 25 24 25 25 24 23 21 19 16 15 13 12 12 10 11 10 9 9 10 10 7 7 7 7 6 8 10 11 11 9 8 7 6 6 7 8 7 12 13 13 5
25 27 27 26 25 25 25 25 24 21 20 17 17 14 13 12 9 9 10 9 9 10 7 6 6 6 5 7 10 11 10 9 8 7 6 5 5 6 8 11 13 13 7
28 27 27 26 27 26 25 25 25 24 22 20 20 19 16 13 10 9 8 8 10 9 9 9 6 6 5 6 9 12 12 10 9 8 6 5 4 7 8 10 10 12 10
27 28 29 28 27 26 25 26 24 24 24 24 21 22 20 16 13 10 9 8 8 9 7 9 10 5 5 5 8 10 10 9 10 10 9 8 6 6 8 9 10 10 12
26 30 30 29 27 23 22 24 24 23 22 22 18 21 24 21 16 14 12 10 8 8 9 8 10 8 5 6 8 10 12 12 13 12 12 10 8 6 8 8 7 9 9
27 27 25 23 24 23 20 19 18 18 19 18 18 17 22 24 21 17 17 14 11 8 7 8 9 7 5 6 5 11 14 13 15 14 13 10 9 9 10 10 9 9 7
24 23 22 20 20 21 19 19 20 22 19 21 21 23 24 24 25 20 19 20 16 11 8 7 5 6 7 6 4 9 15 15 14 13 11 10 11 10 9 9 10 10 5
23 21 20 22 21 20 21 23 20 21 22 22 24 26 29 28 27 22 18 19 19 13 11 8 6 6 5 6 5 7 14 17 16 14 12 11 12 11 10 11 9 11 9
24 26 24 21 21 20 20 20 23 24 20 22 22 23 24 27 23 23 21 19 18 14 17 15 12 9 8 8 7 9 12 15 17 16 15 13 12 11 11 12 13 13 10
23 24 24 23 21 19 19 20 20 21 21 22 19 19 20 21 20 20 22 19 19 19 23 22 18 13 11 10 10 10 10 12 16 17 16 15 14 14 14 14 15 12 13
24 24 23 23 22 21 22 22 21 21 22 22 23 23 21 19 22 22 15 25 22 22 25 25 22 17 14 13 12 14 10 12 14 18 18 17 16 17 16 15 15 15 13
24 24 23 24 24 21 20 19 21 22 22 21 19 20 19 19 24 23 24 16 21 27 27 26 24 21 17 15 13 12 13 13 16 17 19 18 17 18 19 17 17 17 16
24 25 24 24 22 23 22 21 22 22 22 22 23 22 20 22 24 24 26 24 24 20 22 23 22 21 19 16 16 15 15 14 15 19 20 19 18 19 20 18 17 18 16
22 22 23 23 24 23 24 25 23 23 24 24 26 25 20 23 23 21 21 23 24 24 24 24 26 24 22 18 15 15 15 18 17 17 21 20 19 18 18 19 19 19 17
21 23 23 24 23 22 21 22 24 24 24 25 26 27 26 25 26 29 30 29 24 19 19 21 24 26 24 20 17 16 18 18 18 17 20 21 20 20 19 20 21 22 22
20 21 22 23 24 23 22 22 23 23 25 25 24 26 28 27 26 26 27 27 26 26 26 25 24 25 26 26 24 21 22 20 18 19 21 23 22 21 20 20 23 24 24
20 21 22 22 23 24 24 23 23 23 22 20 23 25 28 27 27 26 26 25 25 25 25 27 29 28 28 27 27 25 25 22 21 21 21 24 23 22 21 22 23 24 25
21 20 21 22 23 24 24 23 22 22 22 22 20 20 23 26 25 24 24 24 25 25 26 27 27 26 26 25 24 24 25 23 22 22 22 24 24 23 22 23 24 25 26
Wind_Direction
1 358 360 8 16 23 26 24 20 17 20 20 18 12 15 325 331 345 314 266 250 243 238 225 222 220 222 224 223 231 227 226 160 187 185 203 202 218 228 228 245 262 294
345 340 339 348 360 7 15 20 18 16 17 18 21 16 3 344 4 334 328 301 268 260 252 241 230 229 232 230 226 227 234 222 220 164 187 184 208 214 227 227 237 244 230
341 328 327 328 339 349 357 4 10 15 19 21 20 20 20 16 0 321 311 298 289 273 265 255 248 237 236 235 235 230 227 226 224 203 182 197 207 208 208 229 241 235 219
4 357 353 338 329 326 338 348 356 7 11 20 23 21 21 19 5 354 327 304 285 282 274 269 259 249 247 240 236 237 230 222 221 210 189 193 212 218 223 228 232 227 263
3 5 4 357 341 329 318 327 339 345 356 4 14 19 18 14 9 359 349 337 321 304 280 272 261 256 251 242 249 244 233 222 207 199 175 182 197 195 211 229 230 243 257
10 15 9 2 0 353 331 310 315 327 334 345 358 7 9 10 12 1 351 343 329 312 302 286 271 252 252 251 246 250 242 241 235 215 207 204 225 227 227 223 224 213 258
12 13 11 7 4 359 351 333 311 304 315 324 336 348 357 359 2 2 354 339 336 321 308 300 293 262 252 249 245 245 241 241 250 250 237 232 232 240 235 215 214 211 212
1 1 2 358 355 351 349 349 337 309 296 304 312 324 337 344 347 352 354 355 336 328 317 311 298 283 257 247 247 238 236 239 241 252 259 257 248 251 240 231 212 205 229
352 348 350 348 343 341 338 337 340 330 303 290 296 303 314 328 329 336 341 356 351 335 326 321 312 304 271 243 243 242 236 240 248 254 261 262 247 231 208 200 190 189 201
341 336 334 336 335 332 330 327 325 326 315 296 284 285 292 302 310 317 325 334 337 340 340 327 325 325 291 237 237 240 236 243 240 240 239 247 231 203 191 199 196 184 190
326 324 325 328 328 327 324 321 320 318 315 302 288 281 280 283 288 292 306 318 326 330 328 334 329 327 313 258 233 235 243 252 224 228 224 220 204 177 186 195 203 205 194
320 317 317 322 322 320 320 316 316 314 311 306 301 288 276 275 277 270 278 293 305 318 325 324 330 314 307 287 230 234 230 237 218 211 207 205 215 192 185 193 206 209 212
313 312 315 317 316 315 312 312 312 311 309 303 299 296 290 277 273 268 263 266 283 313 329 323 327 321 299 297 239 221 217 220 211 212 216 220 227 215 192 187 189 196 203
311 313 315 313 310 311 308 304 300 298 301 298 298 295 297 297 284 269 260 253 258 281 305 317 326 327 292 293 247 219 216 220 221 226 231 229 220 217 212 204 198 192 201
315 313 311 309 307 306 299 294 292 286 282 287 289 292 290 290 290 288 272 255 251 264 272 287 311 333 319 307 266 232 219 220 223 227 227 222 214 216 213 209 207 198 204
317 314 310 307 305 301 300 300 293 284 285 281 278 276 280 282 284 281 273 257 246 247 251 253 268 278 282 290 284 240 225 225 226 229 228 227 222 217 212 201 205 206 204
315 315 310 303 298 296 296 295 299 302 291 285 282 279 274 274 282 271 266 250 236 237 241 247 248 258 261 252 262 257 242 239 237 233 232 230 230 226 217 210 207 213 209
321 317 313 308 299 293 290 290 291 294 300 302 295 290 288 283 282 284 248 235 240 232 241 248 248 250 258 251 255 259 259 252 247 239 234 231 228 223 214 215 208 204 210
325 319 315 306 298 294 291 286 285 286 286 289 295 293 284 287 281 277 279 233 232 234 239 248 252 255 257 259 254 262 261 254 251 244 237 232 229 224 221 223 219 209 207
330 322 310 304 299 290 284 279 279 278 280 283 284 285 295 293 280 272 259 256 234 238 244 249 254 259 262 259 260 255 257 258 246 245 242 236 232 230 227 224 219 210 208
335 330 324 314 302 295 285 276 275 274 274 275 277 281 280 274 276 276 269 262 260 247 242 247 254 261 263 261 263 252 251 255 248 243 244 237 231 227 231 231 226 221 213
337 334 331 320 316 304 290 286 275 271 270 271 277 282 277 271 273 273 271 270 268 262 255 254 257 258 257 261 257 249 243 249 250 238 239 238 233 229 229 228 222 218 209
340 340 339 334 325 317 308 297 279 271 268 268 272 276 278 271 268 265 264 262 262 263 258 253 252 251 250 249 243 242 243 245 247 244 232 238 234 227 223 222 219 213 207
333 334 334 334 333 325 318 308 303 295 276 269 268 268 273 274 268 265 266 266 263 259 254 253 250 248 248 248 246 239 240 242 244 245 242 238 235 229 222 217 218 215 209
327 328 329 331 330 328 322 318 305 300 297 294 274 267 272 277 274 271 266 263 262 260 256 250 248 247 246 244 244 240 231 239 244 244 244 240 238 231 223 218 214 210 206
318 321 323 327 329 329 323 316 310 306 300 297 290 283 274 272 277 276 273 266 261 258 256 253 250 247 245 244 242 238 227 227 238 239 239 239 235 229 222 217 213 208 203
Height
846 844 842 840 837 833 830 828 826 822 819 816 814 810 807 808 806 803 803 804 804 805 805 805 807 808 808 809 810 813 812 815 815 820 819 820 823 823 824 824 825 825 824
847 845 844 841 839 835 832 830 828 825 822 818 815 812 809 808 804 804 804 805 804 805 805 804 805 806 807 808 808 809 811 812 813 815 817 819 822 822 822 823 825 824 824
848 847 844 842 838 835 833 830 828 825 823 818 815 811 810 807 804 805 805 806 804 803 804 804 805 805 806 807 807 808 809 810 810 812 815 818 819 820 820 822 824 823 823
848 846 843 841 838 835 832 830 828 826 824 821 817 814 811 809 809 807 807 806 804 802 802 803 804 805 806 807 807 808 807 808 809 812 813 815 817 817 819 821 822 823 822
845 841 839 838 836 833 832 830 828 827 825 822 820 817 814 812 809 808 806 804 803 801 801 802 803 804 805 806 807 808 808 808 807 809 811 813 814 815 817 819 821 822 822
847 843 841 838 835 832 830 828 827 826 825 823 821 818 816 814 811 809 807 805 804 802 801 801 801 801 803 803 805 807 807 808 808 807 808 809 811 813 815 817 818 821 822
849 845 841 837 835 833 830 827 826 825 824 823 821 819 817 815 812 809 808 806 804 802 801 800 799 799 800 802 804 805 806 806 807 807 807 807 808 809 812 812 815 818 820
850 846 842 838 835 833 831 828 826 823 822 821 820 819 817 815 813 811 809 806 805 803 800 799 798 798 799 801 803 803 804 804 806 806 806 807 806 806 807 809 812 815 819
850 848 843 840 836 833 830 827 825 821 819 819 818 818 816 814 813 811 809 807 806 803 801 799 799 797 798 799 800 802 803 803 804 805 804 805 805 805 805 809 811 815 817
849 847 844 840 837 833 830 827 824 821 818 816 815 815 814 812 812 810 809 807 805 804 801 799 799 796 797 797 799 800 801 801 802 803 803 804 805 805 806 808 811 813 816
849 845 841 838 835 832 828 826 822 819 816 814 812 811 811 810 809 808 807 806 804 802 802 799 798 795 796 796 795 799 800 801 802 803 803 803 805 807 808 809 811 814 815
847 843 838 834 832 829 826 822 820 817 814 811 809 806 806 807 806 806 805 804 803 801 799 798 796 796 796 794 794 797 798 800 801 802 804 804 805 807 808 809 811 813 815
843 840 834 830 829 827 824 820 818 815 812 808 807 804 802 802 803 803 803 802 801 800 798 796 795 794 794 793 794 795 796 799 800 801 803 804 805 807 808 809 811 814 814
839 835 831 828 825 823 821 818 815 813 810 807 804 801 799 798 798 800 800 800 799 798 796 795 794 793 793 793 793 793 794 796 799 800 802 803 805 806 808 809 811 813 814
835 832 828 826 823 820 817 815 812 809 809 806 802 800 797 794 795 796 797 797 797 797 795 793 793 792 792 791 791 791 792 794 797 799 800 802 803 805 806 808 810 812 814
832 829 826 822 819 816 812 808 807 805 803 802 799 798 794 791 791 792 793 794 794 795 793 792 791 791 792 792 791 791 792 793 794 797 799 800 802 804 805 807 809 811 813
829 825 821 818 815 812 809 806 800 796 796 795 793 791 789 788 786 786 787 789 791 792 790 789 788 789 789 790 792 791 791 792 794 794 797 799 801 802 804 805 808 811 813
824 820 816 814 811 808 805 802 799 795 791 787 787 786 783 782 781 780 781 783 784 785 784 784 785 785 786 787 788 789 790 791 792 792 793 796 799 800 803 805 807 810 812
819 815 812 809 806 804 801 798 795 792 788 785 782 780 779 777 775 773 773 773 775 777 779 780 781 782 783 784 785 786 787 788 789 790 791 792 796 798 801 804 807 809 811
814 810 807 803 800 797 795 793 790 786 784 781 779 776 775 773 769 766 767 767 767 770 773 775 776 778 779 780 781 783 784 785 786 787 788 790 792 795 798 801 804 806 808
810 806 803 798 794 791 789 786 783 781 778 775 772 771 771 769 765 763 761 761 762 764 767 770 771 773 774 776 777 779 781 782 783 785 785 787 789 791 795 798 802 804 806
808 803 799 795 790 786 782 779 777 774 771 768 765 763 763 761 759 757 756 755 757 759 762 764 765 767 769 771 773 775 777 779 780 782 783 784 786 788 791 795 798 802 804
804 800 795 790 786 781 777 773 770 767 764 761 758 756 754 753 752 751 749 750 752 753 755 757 759 760 763 765 768 771 773 775 777 779 780 782 783 785 787 791 794 798 802
801 796 791 786 781 777 772 768 764 760 757 754 751 749 747 745 744 744 743 743 745 746 749 750 752 753 755 758 762 765 768 770 773 775 777 778 780 782 784 787 791 795 799
797 793 788 783 778 773 768 763 759 755 751 748 744 741 739 738 737 736 736 736 737 738 739 741 743 745 748 751 754 757 761 765 768 770 773 774 776 778 780 783 787 792 796
793 789 784 780 775 770 765 759 754 749 745 741 738 735 733 731 729 728 728 729 729 730 731 733 735 737 740 743 746 750 754 759 762 765 768 770 771 774 777 780 784 788 792